weather.gov     
National Weather Service

Regional Weather Roundup
NWS Homepage
This page is being discontinued on March 12, 2014.
The same data is available at this site. Please update your bookmarks.
Thank you, and we apologize for the inconvenience.
Please send an email to SR-SRH.Webmaster@noaa.gov with any concerns.


Current Version
Previous Version:    01  02  03  04  05  06  07  08  09  10  11  12  13  14  15  16  17  18  19  20  21  22  23  24  25  26  
[Printable]
402
ASUS45 KCYS 311010
RWRWY

WYOMING REGIONAL WEATHER ROUNDUP
NATIONAL WEATHER SERVICE CHEYENNE WY
400 AM MDT SUN AUG 31 2014

NOTE:  "FAIR" INDICATES FEW OR NO CLOUDS BELOW 12,000 FEET
WITH NO SIGNIFICANT WEATHER AND/OR OBSTRUCTIONS TO VISIBILITY.

WYZ001-311100-
YELLOWSTONE NATIONAL PARK

CITY           SKY/WX    TMP DP  RH WIND       PRES   REMARKS
LK YELLOWSTONE   N/A     38  37  97 CALM      30.04F
W YELLOWSTONE  NOT AVBL

$$
WYZ002>013-054>058-071-098>099-311100-
NORTHERN WYOMING

CITY           SKY/WX    TMP DP  RH WIND       PRES   REMARKS
JACKSON        CLOUDY    46  45  93 CALM      29.99S
CODY           CLOUDY    57  39  51 W5        29.86S
GREYBULL       CLOUDY    55  32  41 SE5       29.83S
WORLAND        CLOUDY    54  52  93 CALM      29.85S
SHERIDAN       CLOUDY    52  50  93 S3        29.81F
BUFFALO        CLOUDY    54  47  77 S6        29.86S
GILLETTE       MOCLDY    52  50  93 S6        29.82S
HULETT         FAIR      50  46  87 MISG      29.81
NEWCASTLE      FAIR      52  50  93 CALM      29.85

$$
WYZ014>020-022>026-101>103-311100-
CENTRAL WYOMING

CITY           SKY/WX    TMP DP  RH WIND       PRES   REMARKS
BIG PINEY      CLOUDY    46  42  86 S3        30.02F
PINEDALE       CLOUDY    45  45 100 CALM      30.02F
DUBOIS         FAIR      45  37  76 NW12      29.95F
LANDER         CLOUDY    57  42  57 SW18G25   29.89F
RIVERTON       CLOUDY    53  48  83 S9        29.90F
CASPER         CLOUDY    53  48  83 W3        29.91F
DOUGLAS        CLOUDY    53  50  89 S9        29.93R

$$
WYZ021-027>030-104>119-311100-
SOUTHERN WYOMING

CITY           SKY/WX    TMP DP  RH WIND       PRES   REMARKS
EVANSTON       CLOUDY    54  43  66 N9        30.03F
KEMMERER       CLOUDY    46  43  87 W3        30.03F
FORT BRIDGER   PTSUNNY   53  45  75 N7        30.06F
ROCK SPRINGS   CLOUDY    50  41  71 N16       30.02R
DIXON          LGT RAIN  53  49  88 E5        30.06S
RAWLINS        LGT RAIN  50  48  93 SE5       29.99F
SARATOGA       LGT RAIN  50  46  87 SE5       30.06R
LARAMIE        CLOUDY    51  45  79 NW13      30.02F
CHEYENNE       LGT RAIN  54  47  77 W7        29.94F
TORRINGTON     CLOUDY    56  51  84 N9        29.85R
PINE BLUFFS    PTSUNNY   54  50  87 S5        29.90F

$$




U.S. Dept. of Commerce
NOAA National Weather Service
1325 East West Highway
Silver Spring, MD 20910
E-mail: w-nws.webmaster@noaa.gov
Page last modified: May 16, 2007
NATIONAL WEATHER SERVICE: for Safety, for Work, for Fun - FOR LIFE